Satellite: AO-27
Catalog number: 22825
Epoch time:      06180.55886771
Element set:     436
Inclination:      098.2823 deg
RA of node:       161.7813 deg
Eccentricity:    0.0007576
Arg of perigee:   222.0588 deg
Mean anomaly:     138.0018 deg
Mean motion:   14.29176481 rev/day
Decay rate:       -8.0e-08 rev/day^2
Epoch rev:           66512
Checksum:              319

Satellite: IO-26
Catalog number: 22826
Epoch time:      06180.73656065
Element set:     126
Inclination:      098.2777 deg
RA of node:       163.1525 deg
Eccentricity:    0.0008145
Arg of perigee:   218.9409 deg
Mean anomaly:     141.1174 deg
Mean motion:   14.29420281 rev/day
Decay rate:       -1.1e-07 rev/day^2
Epoch rev:           66522
Checksum:              291

Satellite: PO-28
Catalog number: 22829
Epoch time:      06179.95471113
Element set:    0411
Inclination:      098.2663 deg
RA of node:       163.6116 deg
Eccentricity:    0.0009244
Arg of perigee:   194.3674 deg
Mean anomaly:     165.7233 deg
Mean motion:   14.30114270 rev/day
Decay rate:       -3.0e-08 rev/day^2
Epoch rev:           66532
Checksum:              292

Satellite: TO-31
Catalog number: 25396
Epoch time:      06179.61852936
Element set:     562
Inclination:      098.4781 deg
RA of node:       239.5326 deg
Eccentricity:    0.0003056
Arg of perigee:   147.5989 deg
Mean anomaly:     212.5389 deg
Mean motion:   14.23708024 rev/day
Decay rate:        9.8e-07 rev/day^2
Epoch rev:           41397
Checksum:              342

Satellite: GO-32
Catalog number: 25397
Epoch time:      06180.63413222
Element set:      48
Inclination:      098.4668 deg
RA of node:       237.2337 deg
Eccentricity:    0.0001616
Arg of perigee:   143.1284 deg
Mean anomaly:     217.0013 deg
Mean motion:   14.23106773 rev/day
Decay rate:       -5.0e-08 rev/day^2
Epoch rev:           41401
Checksum:              262

Satellite: UO-36
Catalog number: 25693
Epoch time:      06179.67048947
Element set:      76
Inclination:      064.5568 deg
RA of node:       207.4402 deg
Eccentricity:    0.0019526
Arg of perigee:   329.8272 deg
Mean anomaly:     030.1706 deg
Mean motion:   14.78602744 rev/day
Decay rate:       -9.0e-07 rev/day^2
Epoch rev:           38748
Checksum:              335

Satellite: MO-46
Catalog number: 26548
Epoch time:      06179.57380373
Element set:     529
Inclination:      064.5553 deg
RA of node:       196.5174 deg
Eccentricity:    0.0048204
Arg of perigee:   245.8427 deg
Mean anomaly:     113.7663 deg
Mean motion:   14.82987123 rev/day
Decay rate:       1.59e-06 rev/day^2
Epoch rev:           31109
Checksum:              332

Satellite: NO-44
Catalog number: 26931
Epoch time:      06180.66420228
Element set:     339
Inclination:      067.0540 deg
RA of node:       335.5407 deg
Eccentricity:    0.0006752
Arg of perigee:   255.4062 deg
Mean anomaly:     104.6309 deg
Mean motion:   14.29443276 rev/day
Decay rate:       -4.5e-07 rev/day^2
Epoch rev:           24771
Checksum:              289

Satellite: SO-50
Catalog number: 27607
Epoch time:      06179.72154698
Element set:    0058
Inclination:      064.5590 deg
RA of node:       078.0754 deg
Eccentricity:    0.0041983
Arg of perigee:   143.3122 deg
Mean anomaly:     217.0878 deg
Mean motion:   14.71150110 rev/day
Decay rate:        5.4e-07 rev/day^2
Epoch rev:           18912
Checksum:              301

Satellite: CO-57
Catalog number: 27848
Epoch time:      06180.53663414
Element set:     758
Inclination:      098.7179 deg
RA of node:       187.9722 deg
Eccentricity:    0.0010605
Arg of perigee:   035.0143 deg
Mean anomaly:     325.1723 deg
Mean motion:   14.20271123 rev/day
Decay rate:        4.7e-07 rev/day^2
Epoch rev:           15539
Checksum:              304

Satellite: AO-51
Catalog number: 28375
Epoch time:      06179.67661613
Element set:    0566
Inclination:      098.1630 deg
RA of node:       231.1887 deg
Eccentricity:    0.0083556
Arg of perigee:   172.2756 deg
Mean anomaly:     187.9739 deg
Mean motion:   14.40524345 rev/day
Decay rate:        3.0e-07 rev/day^2
Epoch rev:           10482
Checksum:              326

Satellite: XO-53
Catalog number: 28894
Epoch time:      06179.76161673
Element set:     585
Inclination:      098.1654 deg
RA of node:       077.8969 deg
Eccentricity:    0.0018045
Arg of perigee:   134.0205 deg
Mean anomaly:     226.2502 deg
Mean motion:   14.59481448 rev/day
Decay rate:        5.3e-07 rev/day^2
Epoch rev:            3566
Checksum:              335

Satellite: CO-56
Catalog number: 28941
Epoch time:      06180.76144704
Element set:     130
Inclination:      098.1754 deg
RA of node:       200.7791 deg
Eccentricity:    0.0280643
Arg of perigee:   066.8167 deg
Mean anomaly:     296.2377 deg
Mean motion:   15.25151491 rev/day
Decay rate:     2.3960e-04 rev/day^2
Epoch rev:            1946
Checksum:              322

/EX
SB KEPS @ AMSAT  $ORB06180.W
Orbital Elements  06180.WEATHER

HR AMSAT ORBITAL ELEMENTS FOR WEATHER SATELLITES
FROM WA5QGD FORT WORTH,TX June 29, 2006
Send SUBSCRIBE KEPS/UNSUBSCRIBE KEPS to majordomo@amsat.org only
BID: ORB06180.W
TO ALL RADIO AMATEURS BT

Satellite: NOAA-10
Catalog number: 16969
Epoch time:      06180.48246725
Element set:     257
Inclination:      098.7571 deg
RA of node:       192.1420 deg
Eccentricity:    0.0013271
Arg of perigee:   112.8838 deg
Mean anomaly:     247.3756 deg
Mean motion:   14.27298442 rev/day
Decay rate:       1.04e-06 rev/day^2
Epoch rev:            2891
Checksum:              312

